GORIZONT 7 [-]

Last updated on Mon Jun 26 2023 00:02:57 GMT+0000 (Coordinated Universal Time)

1 14160U 83066A 23176.17184778 -.00000196 00000+0 00000+0 0 9992 2 14160 11.4358 320.3338 0008437 322.1218 39.5506 0.98350060144096
UTC large
Height (km)
Speed (km/s)
/
Latitude / Longitude
Inclination (degrees)
Orbital Period (minutes)
Azimuth
Elevation
Range (km)
Doppler Factor

Next 0 passes for location: London (51.5072 / 0.1276)

Sorry there are no passes over London.